Regional Weather Roundup
Issued by NWS

Home | Current Version | Previous Version | Text Only | Print | Product List | Glossary Off
Versions: 1 2 3 4 5 6 7 8 9 10 11 12 13 14 15 16 17 18 19 20 21 22 23 24 25 26 27 28 29 30 31 32 33 34 35 36 37 38 39 40 41 42 43 44 45 46 47 48 49 50

000
ASUS43 KTOP 292359
RWRKS

WEATHER ROUNDUP FOR KANSAS
NATIONAL WEATHER SERVICE GOODLAND KS
700 PM CDT WED MAR 29 2017

NOTE:  "FAIR" INDICATES FEW OR NO CLOUDS BELOW 12,000 FEET WITH NO
SIGNIFICANT WEATHER AND/OR OBSTRUCTIONS TO VISIBILITY.

KSZ001>006-013>018-027>032-041>047-300100-
NORTHWEST KANSAS

CITY           SKY/WX    TMP DP  RH WIND       PRES   REMARKS
GOODLAND       CLOUDY    43  39  86 N20       29.91S
6HR MIN TEMP:  41; 6HR MAX TEMP:  44;

HAYS             N/A     42  39  89 N22G32    29.78R FOG
HILL CITY      LGT RAIN  39  37  92 N23G30    29.87S FOG     WCI  28
6HR MIN TEMP:  38; 6HR MAX TEMP:  45; 6HR PCP:  0.43;

RUSSELL        LGT RAIN  42  40  92 N25G35    29.73S
6HR MIN TEMP:  42; 6HR MAX TEMP:  45; 6HR PCP:  0.52;

$$

KSZ061>065-074>080-084>089-300100-
SOUTHWEST KANSAS

CITY           SKY/WX    TMP DP  RH WIND       PRES   REMARKS
DODGE CITY     LGT RAIN  40  38  93 NW23G35   29.82S WCI  30
6HR MIN TEMP:  40; 6HR MAX TEMP:  43; 6HR PCP:  0.50;

GARDEN CITY    LGT RAIN  42  40  92 N20G28    29.86S
6HR MIN TEMP:  40; 6HR MAX TEMP:  42; 6HR PCP:  0.35;

GREAT BEND     LGT RAIN  42  40  92 N22       29.74R
LIBERAL        CLOUDY    45  39  81 NW23      29.89S
$$

KSZ066>073-081>083-090>101-300100-
SOUTHEAST KANSAS

CITY           SKY/WX    TMP DP  RH WIND       PRES   REMARKS
CHANUTE        HVY RAIN  61  55  81 S10       29.62S
6HR MIN TEMP:  61; 6HR MAX TEMP:  73; 6HR PCP:  0.07;

COFFEYVILLE    CLOUDY    64  52  64 SW10      29.64R
6HR MIN TEMP:  64; 6HR MAX TEMP:  72;

HUTCHINSON     CLOUDY    45  43  93 N18G28    29.62R
6HR MIN TEMP:  45; 6HR MAX TEMP:  50; 6HR PCP:  0.19;

MEDICINE LODGE   N/A     45  42  89 NW18G29   29.69R
NEWTON         CLOUDY    50  50 100 N9        29.60S
PARSONS        CLOUDY    63  55  75 S6        29.65R
6HR MIN TEMP:  63; 6HR MAX TEMP:  72; 6HR PCP:  0.09;

WICHITA INTL   LGT RAIN  52  50  93 S12       29.57S FOG
6HR MIN TEMP:  52; 6HR MAX TEMP:  60; 6HR PCP:  0.01;

WICHITA JABRA  CLOUDY    54  47  77 S16       29.58S
6HR MIN TEMP:  54; 6HR MAX TEMP:  62; 6HR PCP:  0.04;

WINFIELD       CLOUDY    53  47  79 S22G33    29.62S
6HR MIN TEMP:  53; 6HR MAX TEMP:  63;

$$

KSZ007>012-019>026-033>040-048>060-102>105-300100-
NORTHEAST KANSAS

CITY           SKY/WX    TMP DP  RH WIND       PRES   REMARKS
CONCORDIA      LGT RAIN  43  42  97 N16G24    29.73R FOG
6HR MIN TEMP:  43; 6HR MAX TEMP:  46; 6HR PCP:  0.24;

EMPORIA        CLOUDY    59  52  77 S13       29.59R
6HR MIN TEMP:  59; 6HR MAX TEMP:  68; 6HR PCP:  0.07;

LAWRENCE       PTCLDY    57  56  96 NE12      29.63F
6HR MIN TEMP:  54; 6HR MAX TEMP:  59; 6HR PCP:  0.10;

MANHATTAN      CLOUDY    47  46  97 NE14G25   29.64S
6HR MIN TEMP:  47; 6HR MAX TEMP:  51; 6HR PCP:  0.13;

OLATHE IND     CLOUDY    60  54  80 E5        29.65R
6HR MIN TEMP:  57; 6HR MAX TEMP:  64; 6HR PCP:  0.13;

OLATHE EXE     CLOUDY    59  58  96 E5        29.65R
6HR MIN TEMP:  56; 6HR MAX TEMP:  65; 6HR PCP:  0.04;

SALINA         HVY RAIN  45  43  93 N20       29.67R FOG
6HR MIN TEMP:  45; 6HR MAX TEMP:  49; 6HR PCP:  0.36;

TOPEKA BILLARD CLOUDY    58  56  93 NE14      29.61F
6HR MIN TEMP:  53; 6HR MAX TEMP:  60; 6HR PCP:  0.48;

TOPEKA FORBES  PTCLDY    60  57  89 VRB5      29.61S
6HR MIN TEMP:  55; 6HR MAX TEMP:  63; 6HR PCP:  0.38;

$$



USA.gov is the U.S. government's official web portal to all federal, state and local government web resources and services.